| time (UTC) | temp F | wind direction | speed MPH | gust MPH | rain 1hr in | rain 24hr in | rain mn in | humidity % | barometer mb |
| 20260509211203 | 62 | 211 | 3.0 | 8.0 | 0.00 | 0.00 | 0.00 | 69 | 1003.3 |
| 20260509210202 | 63 | 246 | 2.0 | 3.0 | 0.00 | 0.00 | 0.00 | 71 | 1003.3 |
| 20260509205202 | 63 | 223 | 2.0 | 6.0 | 0.00 | 0.00 | 0.00 | 71 | 1003.3 |
| 20260509204225 | 63 | 205 | 1.0 | 4.0 | 0.00 | 0.00 | 0.00 | 71 | 1003.4 |
| 20260509203202 | 63 | 252 | 2.0 | 9.0 | 0.00 | 0.00 | 0.00 | 70 | 1003.3 |
| 20260509202203 | 63 | 220 | 2.0 | 7.0 | 0.00 | 0.00 | 0.00 | 68 | 1003.5 |
| 20260509201223 | 64 | 245 | 2.0 | 5.0 | 0.00 | 0.00 | 0.00 | 68 | 1003.5 |
| 20260509200202 | 64 | 254 | 3.0 | 8.0 | 0.00 | 0.00 | 0.00 | 67 | 1003.6 |
| 20260509195202 | 65 | 203 | 3.0 | 7.0 | 0.00 | 0.00 | 0.00 | 65 | 1003.7 |
| 20260509194202 | 65 | 256 | 3.0 | 8.0 | 0.00 | 0.00 | 0.00 | 67 | 1003.5 |
| 20260509193202 | 65 | 220 | 4.0 | 12.0 | 0.00 | 0.00 | 0.00 | 67 | 1003.8 |
| 20260509192203 | 65 | 268 | 4.0 | 13.0 | 0.00 | 0.00 | 0.00 | 69 | 1004.0 |
| 20260509191223 | 64 | 291 | 6.0 | 13.0 | 0.00 | 0.00 | 0.00 | 68 | 1004.2 |
| 20260509190202 | 64 | 209 | 3.0 | 8.0 | 0.00 | 0.00 | 0.00 | 67 | 1004.4 |
| 20260509185202 | 64 | 218 | 3.0 | 9.0 | 0.00 | 0.00 | 0.00 | 68 | 1004.5 |
| 20260509184203 | 65 | 269 | 5.0 | 12.0 | 0.00 | 0.00 | 0.00 | 69 | 1004.6 |
| 20260509183203 | 64 | 207 | 2.0 | 7.0 | 0.00 | 0.00 | 0.00 | 69 | 1004.5 |
| 20260509182203 | 64 | 211 | 2.0 | 10.0 | 0.00 | 0.00 | 0.00 | 69 | 1004.7 |
| 20260509181202 | 64 | 225 | 4.0 | 8.0 | 0.00 | 0.00 | 0.00 | 72 | 1004.7 |
| 20260509180202 | 63 | 307 | 2.0 | 9.0 | 0.00 | 0.00 | 0.00 | 71 | 1004.7 |
| 20260509175203 | 63 | 255 | 3.0 | 6.0 | 0.00 | 0.00 | 0.00 | 71 | 1005.0 |
| 20260509174202 | 62 | 241 | 2.0 | 12.0 | 0.00 | 0.00 | 0.00 | 70 | 1005.1 |
| 20260509173202 | 63 | 247 | 3.0 | 14.0 | 0.00 | 0.00 | 0.00 | 69 | 1005.4 |
| 20260509172202 | 62 | 182 | 2.0 | 13.0 | 0.00 | 0.00 | 0.00 | 72 | 1005.4 |
| 20260509171202 | 62 | 198 | 4.0 | 11.0 | 0.00 | 0.00 | 0.00 | 69 | 1005.4 |
| 20260509170202 | 61 | 266 | 4.0 | 9.0 | 0.00 | 0.00 | 0.00 | 70 | 1005.5 |
| 20260509165202 | 62 | 193 | 4.0 | 9.0 | 0.00 | 0.00 | 0.00 | 72 | 1005.6 |
| 20260509164202 | 61 | 262 | 2.0 | 10.0 | 0.00 | 0.00 | 0.00 | 74 | 1005.7 |
| 20260509163223 | 60 | 293 | 4.0 | 13.0 | 0.00 | 0.00 | 0.00 | 74 | 1005.9 |
| 20260509162203 | 60 | 211 | 3.0 | 7.0 | 0.00 | 0.00 | 0.00 | 73 | 1006.1 |
| 20260509161203 | 60 | 293 | 2.0 | 9.0 | 0.00 | 0.00 | 0.00 | 74 | 1006.1 |
| 20260509160202 | 59 | 231 | 2.0 | 7.0 | 0.00 | 0.00 | 0.00 | 75 | 1006.1 |
| 20260509155205 | 59 | 240 | 3.0 | 7.0 | 0.00 | 0.00 | 0.00 | 75 | 1006.1 |
| 20260509154204 | 59 | 209 | 3.0 | 7.0 | 0.00 | 0.00 | 0.00 | 75 | 1006.3 |
| 20260509153202 | 59 | 214 | 2.0 | 6.0 | 0.00 | 0.00 | 0.00 | 77 | 1006.3 |
| 20260509152244 | 58 | 244 | 2.0 | 8.0 | 0.00 | 0.00 | 0.00 | 78 | 1006.3 |
| 20260509151203 | 58 | 225 | 1.0 | 6.0 | 0.00 | 0.00 | 0.00 | 77 | 1006.4 |
| 20260509150203 | 58 | 189 | 1.0 | 5.0 | 0.00 | 0.00 | 0.00 | 78 | 1006.5 |
| 20260509145203 | 57 | 168 | 0.0 | 5.0 | 0.00 | 0.00 | 0.00 | 79 | 1006.4 |
| 20260509144203 | 57 | 298 | 2.0 | 6.0 | 0.00 | 0.00 | 0.00 | 79 | 1006.4 |
| 20260509143202 | 57 | 272 | 3.0 | 6.0 | 0.00 | 0.00 | 0.00 | 80 | 1006.5 |
| 20260509142203 | 56 | 180 | 2.0 | 5.0 | 0.00 | 0.00 | 0.00 | 82 | 1006.6 |
| 20260509141227 | 56 | 197 | 1.0 | 6.0 | 0.00 | 0.00 | 0.00 | 82 | 1006.7 |
| 20260509140202 | 56 | 197 | 1.0 | 5.0 | 0.00 | 0.00 | 0.00 | 83 | 1006.8 |
| 20260509135202 | 55 | 222 | 1.0 | 4.0 | 0.00 | 0.00 | 0.00 | 83 | 1006.8 |
| 20260509134202 | 55 | 252 | 2.0 | 4.0 | 0.00 | 0.00 | 0.00 | 84 | 1006.9 |
| 20260509133204 | 55 | 207 | 3.0 | 6.0 | 0.00 | 0.00 | 0.00 | 84 | 1006.9 |
| 20260509132203 | 55 | 204 | 1.0 | 7.0 | 0.00 | 0.00 | 0.00 | 85 | 1006.9 |
| 20260509131204 | 54 | 238 | 0.0 | 1.0 | 0.00 | 0.00 | 0.00 | 86 | 1007.0 |
| 20260509130225 | 53 | 199 | 0.0 | 0.0 | 0.00 | 0.00 | 0.00 | 86 | 1006.9 |
| 20260509125202 | 52 | 200 | 0.0 | 0.0 | 0.00 | 0.00 | 0.00 | 87 | 1007.0 |
| 20260509124204 | 52 | 190 | 0.0 | 2.0 | 0.00 | 0.00 | 0.00 | 88 | 1007.2 |
| 20260509123203 | 51 | 175 | 1.0 | 4.0 | 0.00 | 0.00 | 0.00 | 88 | 1007.2 |
| 20260509122202 | 50 | 197 | 0.0 | 0.0 | 0.00 | 0.00 | 0.00 | 89 | 1007.3 |
| 20260509121202 | 50 | 246 | 0.0 | 1.0 | 0.00 | 0.00 | 0.00 | 90 | 1007.4 |
| 20260509120202 | 49 | 258 | 0.0 | 1.0 | 0.00 | 0.01 | 0.00 | 90 | 1007.6 |
| 20260509115223 | 47 | 267 | 0.0 | 1.0 | 0.00 | 0.01 | 0.00 | 90 | 1007.4 |
| 20260509114224 | 46 | 283 | 0.0 | 0.0 | 0.00 | 0.01 | 0.00 | 90 | 1007.4 |
| 20260509113225 | 44 | 283 | 0.0 | 0.0 | 0.00 | 0.02 | 0.00 | 89 | 1007.4 |
| 20260509112203 | 43 | 283 | 0.0 | 1.0 | 0.00 | 0.04 | 0.00 | 89 | 1007.3 |
| 20260509111224 | 42 | 248 | 0.0 | 0.0 | 0.00 | 0.05 | 0.00 | 89 | 1007.5 |
| 20260509110202 | 42 | 248 | 0.0 | 0.0 | 0.00 | 0.07 | 0.00 | 88 | 1007.6 |
| 20260509105204 | 41 | 232 | 0.0 | 0.0 | 0.00 | 0.07 | 0.00 | 88 | 1007.7 |
| 20260509104223 | 40 | 232 | 0.0 | 0.0 | 0.00 | 0.07 | 0.00 | 87 | 1007.8 |
| 20260509103203 | 40 | 232 | 0.0 | 0.0 | 0.00 | 0.08 | 0.00 | 87 | 1007.6 |
| 20260509102202 | 40 | 232 | 0.0 | 0.0 | 0.00 | 0.08 | 0.00 | 86 | 1007.6 |
| 20260509101203 | 40 | 232 | 0.0 | 0.0 | 0.00 | 0.08 | 0.00 | 86 | 1007.6 |
| 20260509100202 | 40 | 232 | 0.0 | 0.0 | 0.00 | 0.08 | 0.00 | 86 | 1007.4 |
| 20260509095225 | 40 | 232 | 0.0 | 0.0 | 0.00 | 0.09 | 0.00 | 85 | 1007.5 |
| 20260509094202 | 40 | 232 | 0.0 | 0.0 | 0.00 | 0.09 | 0.00 | 85 | 1007.6 |
| 20260509093202 | 40 | 232 | 0.0 | 0.0 | 0.00 | 0.09 | 0.00 | 85 | 1007.5 |
| 20260509092202 | 40 | 232 | 0.0 | 0.0 | 0.00 | 0.09 | 0.00 | 85 | 1007.6 |
| 20260509091204 | 40 | 232 | 0.0 | 0.0 | 0.00 | 0.09 | 0.00 | 84 | 1007.5 |
| 20260509090226 | 40 | 232 | 0.0 | 0.0 | 0.00 | 0.09 | 0.00 | 84 | 1007.7 |
| 20260509085203 | 40 | 232 | 0.0 | 0.0 | 0.00 | 0.09 | 0.00 | 84 | 1007.7 |
| 20260509083223 | 41 | 232 | 0.0 | 0.0 | 0.00 | 0.09 | 0.00 | 84 | 1007.8 |
| 20260509082226 | 41 | 232 | 0.0 | 0.0 | 0.00 | 0.09 | 0.00 | 84 | 1007.8 |
| 20260509081224 | 40 | 232 | 0.0 | 0.0 | 0.00 | 0.09 | 0.00 | 84 | 1007.8 |
| 20260509075203 | 40 | 232 | 0.0 | 0.0 | 0.00 | 0.09 | 0.00 | 83 | 1007.9 |
| 20260509074202 | 40 | 232 | 0.0 | 0.0 | 0.00 | 0.09 | 0.00 | 83 | 1008.1 |
| 20260509073204 | 40 | 232 | 0.0 | 0.0 | 0.00 | 0.09 | 0.00 | 83 | 1008.1 |
| 20260509072203 | 39 | 232 | 0.0 | 0.0 | 0.00 | 0.09 | 0.00 | 83 | 1008.2 |
| 20260509071203 | 39 | 232 | 0.0 | 0.0 | 0.00 | 0.09 | 0.00 | 83 | 1008.3 |
| 20260509070202 | 39 | 232 | 0.0 | 0.0 | 0.00 | 0.09 | 0.00 | 82 | 1008.3 |
| 20260509065202 | 39 | 232 | 0.0 | 0.0 | 0.00 | 0.09 | 0.00 | 82 | 1008.4 |
| 20260509064202 | 39 | 232 | 0.0 | 0.0 | 0.00 | 0.09 | 0.00 | 82 | 1008.6 |
| 20260509063202 | 39 | 232 | 0.0 | 0.0 | 0.00 | 0.09 | 0.00 | 82 | 1008.7 |
| 20260509062225 | 39 | 232 | 0.0 | 0.0 | 0.00 | 0.09 | 0.00 | 81 | 1008.8 |
| 20260509061224 | 39 | 232 | 0.0 | 0.0 | 0.00 | 0.09 | 0.00 | 82 | 1008.9 |
| 20260509060204 | 39 | 232 | 0.0 | 0.0 | 0.00 | 0.09 | 0.00 | 81 | 1009.2 |
| 20260509055203 | 39 | 232 | 0.0 | 0.0 | 0.00 | 0.09 | 0.00 | 81 | 1009.3 |
| 20260509054203 | 39 | 232 | 0.0 | 0.0 | 0.00 | 0.09 | 0.00 | 80 | 1009.4 |
| 20260509053225 | 40 | 232 | 0.0 | 0.0 | 0.00 | 0.09 | 0.00 | 80 | 1009.4 |
| 20260509052202 | 40 | 232 | 0.0 | 0.0 | 0.00 | 0.09 | 0.00 | 79 | 1009.4 |
| 20260509051203 | 40 | 232 | 0.0 | 0.0 | 0.00 | 0.09 | 0.00 | 79 | 1009.6 |
| 20260509050202 | 40 | 232 | 0.0 | 0.0 | 0.00 | 0.09 | 0.00 | 78 | 1009.7 |
| 20260509045202 | 40 | 232 | 0.0 | 0.0 | 0.00 | 0.09 | 0.00 | 78 | 1009.8 |
| 20260509044203 | 40 | 232 | 0.0 | 0.0 | 0.00 | 0.09 | 0.00 | 78 | 1009.8 |
| 20260509043202 | 40 | 232 | 0.0 | 0.0 | 0.00 | 0.09 | 0.00 | 78 | 1010.0 |
| 20260509042226 | 40 | 232 | 0.0 | 0.0 | 0.00 | 0.09 | 0.00 | 77 | 1010.1 |
| 20260509041203 | 40 | 232 | 0.0 | 0.0 | 0.00 | 0.09 | 0.00 | 75 | 1010.1 |
| 20260509040205 | 40 | 232 | 0.0 | 0.0 | 0.00 | 0.09 | 0.00 | 75 | 1010.1 |
| 20260509035225 | 40 | 232 | 0.0 | 0.0 | 0.00 | 0.09 | 0.09 | 74 | 1010.2 |
| 20260509034202 | 40 | 232 | 0.0 | 0.0 | 0.00 | 0.09 | 0.09 | 73 | 1010.3 |
| 20260509033203 | 40 | 232 | 0.0 | 0.0 | 0.00 | 0.09 | 0.09 | 72 | 1010.3 |
| 20260509032202 | 41 | 232 | 0.0 | 0.0 | 0.00 | 0.09 | 0.09 | 71 | 1010.4 |
| 20260509031204 | 41 | 232 | 0.0 | 0.0 | 0.00 | 0.09 | 0.09 | 71 | 1010.5 |
| 20260509030202 | 41 | 232 | 0.0 | 0.0 | 0.00 | 0.09 | 0.09 | 70 | 1010.6 |
| 20260509025224 | 42 | 232 | 0.0 | 0.0 | 0.00 | 0.10 | 0.09 | 70 | 1010.6 |
| 20260509024202 | 42 | 232 | 0.0 | 0.0 | 0.00 | 0.10 | 0.09 | 68 | 1010.6 |
| 20260509023203 | 43 | 232 | 0.0 | 0.0 | 0.00 | 0.10 | 0.09 | 68 | 1010.6 |
| 20260509022204 | 43 | 232 | 0.0 | 0.0 | 0.00 | 0.10 | 0.09 | 68 | 1010.7 |
| 20260509021202 | 44 | 232 | 0.0 | 0.0 | 0.00 | 0.10 | 0.09 | 67 | 1010.6 |
| 20260509020203 | 44 | 232 | 0.0 | 0.0 | 0.00 | 0.10 | 0.09 | 66 | 1010.5 |
| 20260509015202 | 45 | 232 | 0.0 | 0.0 | 0.00 | 0.11 | 0.09 | 65 | 1010.3 |
| 20260509014246 | 45 | 232 | 0.0 | 0.0 | 0.00 | 0.13 | 0.09 | 63 | 1010.3 |
| 20260509013203 | 46 | 232 | 0.0 | 0.0 | 0.00 | 0.13 | 0.09 | 62 | 1010.3 |
| 20260509012205 | 46 | 232 | 0.0 | 0.0 | 0.00 | 0.15 | 0.09 | 55 | 1010.2 |
| 20260509011203 | 47 | 232 | 0.0 | 0.0 | 0.00 | 0.17 | 0.09 | 56 | 1010.2 |
| 20260509010203 | 48 | 232 | 0.0 | 0.0 | 0.00 | 0.19 | 0.09 | 56 | 1010.2 |
| 20260509005202 | 49 | 232 | 0.0 | 0.0 | 0.00 | 0.20 | 0.09 | 50 | 1010.2 |
| 20260509004204 | 50 | 232 | 0.0 | 0.0 | 0.00 | 0.20 | 0.09 | 52 | 1010.2 |
| 20260509003203 | 51 | 232 | 0.0 | 0.0 | 0.00 | 0.20 | 0.09 | 51 | 1010.2 |
| 20260509002223 | 52 | 232 | 0.0 | 0.0 | 0.00 | 0.20 | 0.09 | 50 | 1010.0 |
| 20260509001204 | 52 | 232 | 0.0 | 0.0 | 0.00 | 0.20 | 0.09 | 47 | 1010.0 |
| 20260509000204 | 53 | 232 | 0.0 | 0.0 | 0.00 | 0.20 | 0.09 | 45 | 1009.9 |
| 20260508235202 | 53 | 232 | 0.0 | 0.0 | 0.00 | 0.20 | 0.09 | 42 | 1009.9 |
| 20260508234203 | 53 | 231 | 0.0 | 3.0 | 0.00 | 0.20 | 0.09 | 42 | 1009.8 |
| 20260508233202 | 54 | 231 | 0.0 | 4.0 | 0.00 | 0.20 | 0.09 | 45 | 1009.8 |
| 20260508232202 | 54 | 281 | 0.0 | 2.0 | 0.00 | 0.20 | 0.09 | 46 | 1009.8 |
| 20260508231202 | 55 | 280 | 0.0 | 6.0 | 0.00 | 0.20 | 0.09 | 49 | 1009.8 |
| 20260508230203 | 54 | 220 | 1.0 | 4.0 | 0.00 | 0.20 | 0.09 | 46 | 1009.8 |
| 20260508225205 | 54 | 220 | 2.0 | 5.0 | 0.00 | 0.20 | 0.09 | 46 | 1009.8 |
| 20260508224225 | 55 | 161 | 3.0 | 5.0 | 0.00 | 0.20 | 0.09 | 46 | 1009.8 |
| 20260508223203 | 55 | 200 | 0.0 | 4.0 | 0.00 | 0.20 | 0.09 | 47 | 1009.9 |
| 20260508222226 | 55 | 222 | 1.0 | 4.0 | 0.00 | 0.20 | 0.09 | 48 | 1009.9 |
| 20260508221203 | 55 | 218 | 2.0 | 4.0 | 0.00 | 0.20 | 0.09 | 47 | 1009.9 |
| 20260508220204 | 55 | 217 | 3.0 | 5.0 | 0.00 | 0.20 | 0.09 | 47 | 1010.0 |
| 20260508215203 | 55 | 302 | 2.0 | 5.0 | 0.00 | 0.20 | 0.09 | 47 | 1010.0 |
| 20260508214223 | 55 | 275 | 3.0 | 6.0 | 0.00 | 0.20 | 0.09 | 48 | 1010.1 |
| 20260508213226 | 56 | 291 | 4.0 | 10.0 | 0.00 | 0.20 | 0.09 | 47 | 1010.0 |
| 20260508212204 | 56 | 283 | 2.0 | 6.0 | 0.00 | 0.20 | 0.09 | 50 | 1010.0 |